| time (UTC) | temp F | wind direction | speed MPH | gust MPH | rain 1hr in | rain 24hr in | rain mn in | humidity % | barometer mb |
| 20260504234522 | 64 | 172 | 3.0 | 10.0 | 0.00 | 0.00 | 0.00 | 61 | 1014.8 |
| 20260504234020 | 64 | 223 | 3.0 | 10.0 | 0.00 | 0.00 | 0.00 | 61 | 1014.8 |
| 20260504233542 | 65 | 233 | 3.0 | 10.0 | 0.00 | 0.00 | 0.00 | 60 | 1014.8 |
| 20260504233019 | 65 | 269 | 4.0 | 10.0 | 0.00 | 0.00 | 0.00 | 60 | 1014.8 |
| 20260504232521 | 65 | 234 | 5.0 | 10.0 | 0.00 | 0.00 | 0.00 | 62 | 1014.7 |
| 20260504232034 | 65 | 196 | 4.0 | 10.0 | 0.00 | 0.00 | 0.00 | 63 | 1014.8 |
| 20260504231535 | 64 | 217 | 4.0 | 12.0 | 0.00 | 0.00 | 0.00 | 64 | 1014.9 |
| 20260504231032 | 65 | 250 | 5.0 | 14.0 | 0.00 | 0.00 | 0.00 | 64 | 1014.9 |
| 20260504230557 | 65 | 258 | 6.0 | 14.0 | 0.00 | 0.00 | 0.00 | 63 | 1014.9 |
| 20260504230022 | 65 | 181 | 6.0 | 12.0 | 0.00 | 0.00 | 0.00 | 61 | 1014.9 |
| 20260504225540 | 64 | 211 | 4.0 | 9.0 | 0.00 | 0.00 | 0.00 | 62 | 1014.9 |
| 20260504225038 | 65 | 150 | 5.0 | 9.0 | 0.00 | 0.00 | 0.00 | 61 | 1015.0 |
| 20260504224513 | 65 | 196 | 5.0 | 12.0 | 0.00 | 0.00 | 0.00 | 60 | 1015.1 |
| 20260504224033 | 65 | 207 | 5.0 | 12.0 | 0.00 | 0.00 | 0.00 | 60 | 1015.1 |
| 20260504223534 | 66 | 170 | 5.0 | 10.0 | 0.00 | 0.00 | 0.00 | 61 | 1015.1 |
| 20260504223042 | 66 | 189 | 5.0 | 11.0 | 0.00 | 0.00 | 0.00 | 59 | 1015.2 |
| 20260504222515 | 66 | 223 | 4.0 | 12.0 | 0.00 | 0.00 | 0.00 | 58 | 1015.2 |
| 20260504222014 | 66 | 195 | 6.0 | 12.0 | 0.00 | 0.00 | 0.00 | 58 | 1015.3 |
| 20260504221535 | 66 | 198 | 2.0 | 7.0 | 0.00 | 0.00 | 0.00 | 58 | 1015.2 |
| 20260504221047 | 67 | 203 | 2.0 | 12.0 | 0.00 | 0.00 | 0.00 | 56 | 1015.4 |
| 20260504220609 | 67 | 238 | 7.0 | 12.0 | 0.00 | 0.00 | 0.00 | 54 | 1015.5 |
| 20260504220033 | 68 | 252 | 5.0 | 12.0 | 0.00 | 0.00 | 0.00 | 54 | 1015.4 |
| 20260504215557 | 68 | 204 | 6.0 | 12.0 | 0.00 | 0.00 | 0.00 | 56 | 1015.5 |
| 20260504215026 | 67 | 190 | 3.0 | 10.0 | 0.00 | 0.00 | 0.00 | 56 | 1015.5 |
| 20260504214527 | 67 | 221 | 5.0 | 14.0 | 0.00 | 0.00 | 0.00 | 55 | 1015.6 |
| 20260504214017 | 67 | 210 | 5.0 | 14.0 | 0.00 | 0.00 | 0.00 | 55 | 1015.6 |
| 20260504213533 | 67 | 184 | 5.0 | 15.0 | 0.00 | 0.00 | 0.00 | 54 | 1015.5 |
| 20260504213024 | 67 | 155 | 4.0 | 15.0 | 0.00 | 0.00 | 0.00 | 54 | 1015.6 |
| 20260504212526 | 67 | 222 | 7.0 | 15.0 | 0.00 | 0.00 | 0.00 | 53 | 1015.6 |
| 20260504212017 | 67 | 223 | 7.0 | 15.0 | 0.00 | 0.00 | 0.00 | 52 | 1015.6 |
| 20260504211517 | 67 | 134 | 7.0 | 15.0 | 0.00 | 0.00 | 0.00 | 52 | 1015.6 |
| 20260504211028 | 67 | 212 | 6.0 | 12.0 | 0.00 | 0.00 | 0.00 | 52 | 1015.6 |
| 20260504210602 | 68 | 214 | 7.0 | 16.0 | 0.00 | 0.00 | 0.00 | 51 | 1015.6 |
| 20260504210025 | 68 | 180 | 8.0 | 16.0 | 0.00 | 0.00 | 0.00 | 52 | 1015.5 |
| 20260504205525 | 68 | 219 | 6.0 | 13.0 | 0.00 | 0.00 | 0.00 | 52 | 1015.5 |
| 20260504205036 | 68 | 225 | 5.0 | 11.0 | 0.00 | 0.00 | 0.00 | 52 | 1015.5 |
| 20260504204536 | 68 | 242 | 3.0 | 15.0 | 0.00 | 0.00 | 0.00 | 52 | 1015.5 |
| 20260504204019 | 68 | 211 | 5.0 | 15.0 | 0.00 | 0.00 | 0.00 | 51 | 1015.4 |
| 20260504203542 | 69 | 187 | 5.0 | 10.0 | 0.00 | 0.00 | 0.00 | 51 | 1015.4 |
| 20260504203030 | 69 | 172 | 3.0 | 12.0 | 0.00 | 0.00 | 0.00 | 50 | 1015.4 |
| 20260504202531 | 69 | 147 | 5.0 | 15.0 | 0.00 | 0.00 | 0.00 | 50 | 1015.3 |
| 20260504202024 | 69 | 212 | 6.0 | 14.0 | 0.00 | 0.00 | 0.00 | 48 | 1015.2 |
| 20260504201540 | 68 | 176 | 4.0 | 10.0 | 0.00 | 0.00 | 0.00 | 51 | 1015.2 |
| 20260504201032 | 68 | 209 | 2.0 | 11.0 | 0.00 | 0.00 | 0.00 | 48 | 1015.4 |
| 20260504200600 | 68 | 181 | 2.0 | 11.0 | 0.00 | 0.00 | 0.00 | 48 | 1015.3 |
| 20260504200042 | 67 | 327 | 1.0 | 11.0 | 0.00 | 0.00 | 0.00 | 52 | 1015.3 |
| 20260504195543 | 67 | 204 | 2.0 | 11.0 | 0.00 | 0.00 | 0.00 | 51 | 1015.2 |
| 20260504195030 | 67 | 258 | 2.0 | 11.0 | 0.00 | 0.00 | 0.00 | 49 | 1015.3 |
| 20260504194532 | 67 | 341 | 4.0 | 10.0 | 0.00 | 0.00 | 0.00 | 50 | 1015.5 |
| 20260504194022 | 66 | 212 | 4.0 | 9.0 | 0.00 | 0.00 | 0.00 | 50 | 1015.4 |
| 20260504193537 | 66 | 268 | 2.0 | 16.0 | 0.00 | 0.00 | 0.00 | 52 | 1015.5 |
| 20260504193046 | 66 | 292 | 5.0 | 16.0 | 0.00 | 0.00 | 0.00 | 50 | 1015.5 |
| 20260504192514 | 67 | 341 | 3.0 | 9.0 | 0.00 | 0.00 | 0.00 | 49 | 1015.6 |
| 20260504192046 | 67 | 323 | 3.0 | 9.0 | 0.00 | 0.00 | 0.00 | 50 | 1015.5 |
| 20260504191523 | 67 | 241 | 3.0 | 8.0 | 0.00 | 0.00 | 0.00 | 55 | 1015.5 |
| 20260504191020 | 66 | 192 | 2.0 | 7.0 | 0.00 | 0.00 | 0.00 | 54 | 1015.5 |
| 20260504190544 | 65 | 223 | 2.0 | 7.0 | 0.00 | 0.00 | 0.00 | 55 | 1015.6 |
| 20260504190024 | 64 | 329 | 1.0 | 6.0 | 0.00 | 0.00 | 0.00 | 59 | 1015.6 |
| 20260504185525 | 64 | 315 | 1.0 | 15.0 | 0.00 | 0.00 | 0.00 | 58 | 1015.6 |
| 20260504185023 | 64 | 337 | 5.0 | 15.0 | 0.00 | 0.00 | 0.00 | 57 | 1015.8 |
| 20260504184522 | 63 | 340 | 4.0 | 12.0 | 0.00 | 0.00 | 0.00 | 58 | 1015.7 |
| 20260504184021 | 63 | 344 | 1.0 | 9.0 | 0.00 | 0.00 | 0.00 | 60 | 1015.8 |
| 20260504183522 | 64 | 335 | 1.0 | 9.0 | 0.00 | 0.00 | 0.00 | 59 | 1015.7 |
| 20260504183017 | 64 | 349 | 2.0 | 8.0 | 0.00 | 0.00 | 0.00 | 60 | 1015.6 |
| 20260504182554 | 63 | 205 | 1.0 | 9.0 | 0.00 | 0.00 | 0.00 | 59 | 1015.9 |
| 20260504182024 | 63 | 5 | 1.0 | 12.0 | 0.00 | 0.00 | 0.00 | 60 | 1015.9 |
| 20260504181524 | 64 | 329 | 4.0 | 12.0 | 0.00 | 0.00 | 0.00 | 59 | 1016.1 |
| 20260504181016 | 64 | 269 | 2.0 | 11.0 | 0.00 | 0.00 | 0.00 | 60 | 1016.0 |
| 20260504180559 | 63 | 19 | 1.0 | 11.0 | 0.00 | 0.00 | 0.00 | 62 | 1016.1 |
| 20260504180017 | 62 | 269 | 0.0 | 9.0 | 0.00 | 0.00 | 0.00 | 65 | 1016.0 |
| 20260504175520 | 62 | 342 | 2.0 | 13.0 | 0.00 | 0.00 | 0.00 | 63 | 1016.0 |
| 20260504175055 | 62 | 309 | 4.0 | 9.0 | 0.00 | 0.00 | 0.00 | 62 | 1015.9 |
| 20260504174532 | 62 | 313 | 1.0 | 9.0 | 0.00 | 0.00 | 0.00 | 63 | 1016.0 |
| 20260504174024 | 62 | 291 | 1.0 | 8.0 | 0.00 | 0.00 | 0.00 | 64 | 1016.0 |
| 20260504173520 | 61 | 202 | 3.0 | 9.0 | 0.00 | 0.00 | 0.00 | 64 | 1015.9 |
| 20260504173031 | 61 | 342 | 1.0 | 10.0 | 0.00 | 0.00 | 0.00 | 64 | 1015.9 |
| 20260504172535 | 61 | 336 | 3.0 | 11.0 | 0.00 | 0.00 | 0.00 | 62 | 1015.8 |
| 20260504172044 | 61 | 323 | 4.0 | 11.0 | 0.00 | 0.00 | 0.00 | 63 | 1015.9 |
| 20260504171522 | 61 | 336 | 1.0 | 5.0 | 0.00 | 0.00 | 0.00 | 62 | 1016.0 |
| 20260504171029 | 61 | 335 | 1.0 | 11.0 | 0.00 | 0.00 | 0.00 | 64 | 1015.8 |
| 20260504170552 | 61 | 223 | 2.0 | 11.0 | 0.00 | 0.00 | 0.00 | 64 | 1015.8 |
| 20260504151020 | 52 | 338 | 0.0 | 0.0 | 0.00 | 0.00 | 0.00 | 85 | 1015.3 |
| 20260504150545 | 52 | 338 | 0.0 | 0.0 | 0.00 | 0.00 | 0.00 | 85 | 1015.3 |
| 20260504141024 | 49 | 339 | 0.0 | 0.0 | 0.00 | 0.00 | 0.00 | 89 | 1015.1 |
| 20260504140548 | 49 | 339 | 0.0 | 0.0 | 0.00 | 0.00 | 0.00 | 89 | 1015.1 |
| 20260504130603 | 50 | 339 | 0.0 | 0.0 | 0.00 | 0.00 | 0.00 | 87 | 1014.9 |
| 20260504110611 | 52 | 339 | 0.0 | 0.0 | 0.00 | 0.00 | 0.00 | 86 | 1014.9 |
| 20260504100600 | 53 | 339 | 0.0 | 3.0 | 0.00 | 0.00 | 0.00 | 85 | 1014.7 |
| 20260504081541 | 54 | 344 | 0.0 | 0.0 | 0.00 | 0.00 | 0.00 | 84 | 1015.5 |
| 20260504081034 | 54 | 344 | 0.0 | 0.0 | 0.00 | 0.00 | 0.00 | 83 | 1015.8 |
| 20260504080558 | 54 | 344 | 0.0 | 0.0 | 0.00 | 0.00 | 0.00 | 83 | 1015.8 |
| 20260504050556 | 55 | 343 | 0.0 | 0.0 | 0.00 | 0.00 | 0.00 | 79 | 1015.4 |
| 20260504045536 | 55 | 343 | 0.0 | 0.0 | 0.00 | 0.00 | 0.00 | 79 | 1015.4 |
| 20260504045023 | 55 | 343 | 0.0 | 0.0 | 0.00 | 0.00 | 0.00 | 79 | 1015.3 |
| 20260504044523 | 55 | 343 | 0.0 | 0.0 | 0.00 | 0.00 | 0.00 | 79 | 1015.2 |
| 20260504044021 | 55 | 343 | 0.0 | 0.0 | 0.00 | 0.00 | 0.00 | 78 | 1015.1 |
| 20260504043523 | 55 | 343 | 0.0 | 0.0 | 0.00 | 0.00 | 0.00 | 79 | 1015.0 |
| 20260504043032 | 55 | 343 | 0.0 | 0.0 | 0.00 | 0.00 | 0.00 | 79 | 1015.0 |
| 20260504042533 | 55 | 343 | 0.0 | 0.0 | 0.00 | 0.00 | 0.00 | 79 | 1015.0 |
| 20260504042019 | 55 | 343 | 0.0 | 0.0 | 0.00 | 0.00 | 0.00 | 79 | 1015.0 |
| 20260504041521 | 55 | 343 | 0.0 | 0.0 | 0.00 | 0.00 | 0.00 | 79 | 1015.0 |
| 20260504041051 | 55 | 343 | 0.0 | 3.0 | 0.00 | 0.00 | 0.00 | 79 | 1014.9 |
| 20260504040603 | 55 | 343 | 0.0 | 4.0 | 0.00 | 0.00 | 0.00 | 79 | 1014.8 |
| 20260504040027 | 55 | 342 | 1.0 | 5.0 | 0.00 | 0.00 | 0.00 | 79 | 1014.7 |
| 20260504035522 | 55 | 319 | 1.0 | 5.0 | 0.00 | 0.00 | 0.00 | 79 | 1014.8 |
| 20260504035031 | 55 | 315 | 0.0 | 0.0 | 0.00 | 0.00 | 0.00 | 80 | 1014.7 |
| 20260504034533 | 55 | 315 | 0.0 | 4.0 | 0.00 | 0.00 | 0.00 | 79 | 1014.8 |
| 20260504034021 | 55 | 315 | 0.0 | 5.0 | 0.00 | 0.00 | 0.00 | 79 | 1014.7 |
| 20260504033536 | 55 | 314 | 1.0 | 5.0 | 0.00 | 0.00 | 0.00 | 79 | 1014.6 |
| 20260504033049 | 55 | 294 | 0.0 | 1.0 | 0.00 | 0.00 | 0.00 | 79 | 1014.5 |
| 20260504032523 | 55 | 297 | 0.0 | 4.0 | 0.00 | 0.00 | 0.00 | 79 | 1014.6 |
| 20260504032022 | 56 | 296 | 2.0 | 4.0 | 0.00 | 0.00 | 0.00 | 79 | 1014.5 |
| 20260504031535 | 56 | 288 | 0.0 | 2.0 | 0.00 | 0.00 | 0.00 | 78 | 1014.5 |
| 20260504031027 | 56 | 287 | 0.0 | 5.0 | 0.00 | 0.00 | 0.00 | 78 | 1014.3 |
| 20260504030603 | 56 | 288 | 0.0 | 5.0 | 0.00 | 0.00 | 0.00 | 78 | 1014.3 |
| 20260504030028 | 56 | 325 | 0.0 | 4.0 | 0.00 | 0.00 | 0.00 | 77 | 1014.2 |
| 20260504025522 | 56 | 321 | 1.0 | 3.0 | 0.00 | 0.00 | 0.00 | 77 | 1014.1 |
| 20260504025021 | 56 | 339 | 1.0 | 4.0 | 0.00 | 0.00 | 0.00 | 77 | 1014.2 |
| 20260504024523 | 56 | 339 | 1.0 | 5.0 | 0.00 | 0.00 | 0.00 | 77 | 1014.2 |
| 20260504024034 | 56 | 328 | 0.0 | 5.0 | 0.00 | 0.00 | 0.00 | 77 | 1014.2 |
| 20260504023536 | 56 | 328 | 1.0 | 5.0 | 0.00 | 0.00 | 0.00 | 77 | 1014.2 |
| 20260504023023 | 57 | 241 | 0.0 | 5.0 | 0.00 | 0.00 | 0.00 | 77 | 1014.2 |
| 20260504022515 | 57 | 355 | 0.0 | 5.0 | 0.00 | 0.00 | 0.00 | 77 | 1014.2 |
| 20260504022027 | 57 | 9 | 1.0 | 5.0 | 0.00 | 0.00 | 0.00 | 76 | 1014.1 |
| 20260504021601 | 57 | 309 | 1.0 | 5.0 | 0.00 | 0.00 | 0.00 | 76 | 1014.1 |
| 20260504021028 | 57 | 345 | 1.0 | 5.0 | 0.00 | 0.00 | 0.00 | 75 | 1014.1 |
| 20260504020553 | 58 | 39 | 1.0 | 4.0 | 0.00 | 0.00 | 0.00 | 74 | 1014.0 |
| 20260504020031 | 58 | 194 | 1.0 | 10.0 | 0.00 | 0.00 | 0.00 | 72 | 1014.1 |
| 20260504015531 | 58 | 348 | 3.0 | 10.0 | 0.00 | 0.00 | 0.00 | 70 | 1014.1 |
| 20260504015044 | 58 | 323 | 4.0 | 9.0 | 0.00 | 0.00 | 0.00 | 70 | 1014.1 |
| 20260504014524 | 58 | 339 | 2.0 | 5.0 | 0.00 | 0.00 | 0.00 | 69 | 1014.0 |
| 20260504014020 | 59 | 341 | 1.0 | 8.0 | 0.00 | 0.00 | 0.00 | 69 | 1013.8 |
| 20260504013517 | 59 | 224 | 0.0 | 8.0 | 0.00 | 0.00 | 0.00 | 69 | 1013.9 |
| 20260504013028 | 59 | 349 | 3.0 | 9.0 | 0.00 | 0.00 | 0.00 | 67 | 1013.8 |
| 20260504012525 | 59 | 5 | 2.0 | 8.0 | 0.00 | 0.00 | 0.00 | 67 | 1013.8 |
| 20260504012015 | 60 | 340 | 1.0 | 8.0 | 0.00 | 0.00 | 0.00 | 66 | 1013.8 |
| 20260504011533 | 60 | 232 | 1.0 | 6.0 | 0.00 | 0.00 | 0.00 | 66 | 1013.8 |
| 20260504011022 | 60 | 329 | 1.0 | 6.0 | 0.00 | 0.00 | 0.00 | 65 | 1013.6 |
| 20260504010542 | 60 | 346 | 1.0 | 5.0 | 0.00 | 0.00 | 0.00 | 65 | 1013.9 |
| 20260504010017 | 61 | 318 | 0.0 | 5.0 | 0.00 | 0.00 | 0.00 | 65 | 1013.9 |
| 20260504005518 | 61 | 347 | 1.0 | 6.0 | 0.00 | 0.00 | 0.00 | 64 | 1013.6 |
| 20260504005016 | 61 | 337 | 0.0 | 6.0 | 0.00 | 0.00 | 0.00 | 65 | 1013.4 |
| 20260504004538 | 61 | 333 | 2.0 | 6.0 | 0.00 | 0.00 | 0.00 | 64 | 1013.4 |
| 20260504004043 | 62 | 339 | 0.0 | 5.0 | 0.00 | 0.00 | 0.00 | 64 | 1013.2 |
| 20260504003524 | 62 | 341 | 1.0 | 5.0 | 0.00 | 0.00 | 0.00 | 64 | 1013.2 |
| 20260504003023 | 62 | 333 | 0.0 | 5.0 | 0.00 | 0.00 | 0.00 | 64 | 1013.2 |
| 20260504002518 | 63 | 315 | 0.0 | 3.0 | 0.00 | 0.00 | 0.00 | 64 | 1013.2 |
| 20260504002030 | 63 | 263 | 0.0 | 4.0 | 0.00 | 0.00 | 0.00 | 65 | 1013.4 |
| 20260504001551 | 63 | 175 | 1.0 | 4.0 | 0.00 | 0.00 | 0.00 | 65 | 1013.4 |
| 20260504001018 | 63 | 191 | 1.0 | 3.0 | 0.00 | 0.00 | 0.00 | 66 | 1013.2 |
| 20260504000542 | 63 | 234 | 0.0 | 4.0 | 0.00 | 0.00 | 0.00 | 65 | 1013.2 |
| 20260504000029 | 63 | 329 | 0.0 | 5.0 | 0.00 | 0.00 | 0.00 | 64 | 1013.1 |
| 20260503235533 | 63 | 209 | 0.0 | 4.0 | 0.00 | 0.00 | 0.00 | 63 | 1013.1 |
| 20260503235044 | 63 | 211 | 1.0 | 4.0 | 0.00 | 0.00 | 0.00 | 63 | 1013.2 |